GFSMA_2pvu_pres_177.txt.gz
Presure
151 153 161 150 170 163 171 177 158 139 163 168 164 158 116 94 143 90 158 167 98 94 97 96 101 170 182 151 142 142 176 141 151 160 123 166 151 190 165 175 209 164 175
144 152 148 108 180 150 167 170 150 165 232 95 159 91 83 105 85 103 85 90 97 112 112 141 123 116 137 216 164 156 183 150 124 129 137 167 137 177 178 170 142 152 121
104 101 198 155 158 159 182 220 140 225 83 128 78 92 81 191 155 93 98 101 100 100 106 107 102 160 183 124 132 170 154 151 147 167 179 186 157 178 210 177 168 191 125
121 105 120 89 183 139 181 210 215 203 190 199 218 90 203 174 171 90 88 97 103 115 116 83 97 127 154 153 150 163 187 143 144 137 151 177 164 147 154 177 151 127 126
95 168 128 109 116 164 186 217 126 226 177 80 77 148 214 230 100 110 160 113 104 201 90 122 150 144 138 184 153 174 161 171 164 151 169 154 135 148 170 148 137 168 131
210 211 199 209 222 210 203 139 84 81 100 252 129 223 111 237 203 148 167 206 210 156 219 120 151 145 182 159 208 169 132 168 169 146 196 162 150 138 137 153 154 138 125
202 200 205 209 210 202 211 138 213 206 99 99 133 157 219 223 79 95 241 320 320 325 211 241 242 244 135 137 146 195 186 233 230 161 174 210 221 187 178 175 178 135 183
202 212 206 206 191 79 208 226 249 241 148 213 155 150 222 131 123 240 294 302 306 265 311 314 307 134 227 148 143 209 171 134 139 146 193 168 152 144 111 151 173 155 155
210 212 205 72 77 144 208 235 241 232 207 216 215 291 289 256 277 277 237 291 217 296 217 218 133 132 185 253 222 252 234 140 217 140 151 149 160 150 128 150 155 160 157
216 216 215 204 210 244 155 239 200 199 225 281 290 283 268 264 272 274 282 321 313 310 299 298 293 292 292 285 288 305 247 234 149 197 193 206 170 162 133 172 129 129 177
211 216 223 85 248 240 203 199 206 227 280 274 264 254 260 284 286 262 292 306 275 379 436 420 410 296 298 323 281 281 127 165 245 210 157 162 203 149 164 167 156 135 156
189 202 205 239 185 216 220 226 274 267 266 258 248 254 272 277 256 266 274 267 352 351 371 439 409 404 390 279 275 276 274 281 278 244 252 156 186 130 171 169 123 169 142
237 238 192 197 209 220 218 269 261 261 247 246 255 256 246 234 285 247 272 299 355 338 347 493 461 462 434 384 358 270 274 124 269 215 221 240 156 146 135 165 186 170 134
231 202 205 210 215 221 268 264 253 246 242 248 258 249 256 250 242 269 266 265 297 347 333 369 427 343 349 402 370 312 274 268 262 266 178 259 210 241 237 158 135 169 156
216 215 207 215 258 258 251 245 242 236 246 256 254 254 238 238 242 257 263 261 263 284 336 327 328 373 362 349 361 354 264 273 254 259 257 269 293 195 152 248 202 194 147
210 217 223 266 257 252 243 239 236 246 266 242 248 251 236 252 236 228 252 264 262 260 269 307 321 313 317 372 361 360 257 252 259 255 263 259 263 295 142 139 168 206 199
229 269 267 255 248 239 234 230 248 242 248 255 250 235 253 227 235 242 237 238 249 260 253 249 265 297 318 314 311 322 339 255 250 243 246 255 245 263 264 183 180 179 175
266 254 252 247 237 228 229 232 232 253 264 251 240 241 222 231 226 241 245 238 239 237 236 255 263 258 254 271 285 307 330 332 328 256 152 135 249 244 246 255 256 259 266
252 242 243 235 231 228 227 235 218 255 260 249 231 238 239 237 227 226 232 217 224 228 233 236 231 249 248 239 241 256 257 270 274 281 292 299 303 306 310 169 335 337 344
238 234 229 225 227 224 232 233 258 230 225 224 246 225 240 227 226 223 229 227 227 235 226 229 229 240 239 235 244 246 249 250 246 244 251 252 266 262 259 255 258 175 192
228 228 227 226 234 235 253 233 265 229 231 237 232 233 221 221 227 232 221 226 225 224 222 223 212 231 234 242 242 230 243 249 244 239 239 237 225 235 255 256 259 251 222
227 228 217 231 234 247 232 257 228 236 236 247 231 228 224 230 211 225 217 215 215 211 222 227 230 226 225 224 220 224 225 228 219 228 236 198 241 242 243 245 246 256 256
226 225 227 228 246 221 244 221 245 260 217 231 236 223 225 227 218 218 203 216 214 225 216 214 213 215 215 216 211 215 221 222 221 223 224 225 226 228 235 240 245 239 234
227 225 230 238 239 230 249 243 243 242 238 227 187 151 221 208 222 220 215 213 217 214 209 209 209 210 211 216 216 215 215 215 225 225 225 230 234 229 227 229 230 230 230
238 211 240 233 239 254 233 234 159 124 208 157 147 228 208 215 208 207 213 215 221 209 203 214 215 205 206 215 215 213 213 214 217 215 223 224 220 223 231 234 232 242 245
258 252 247 256 219 231 162 226 230 234 229 227 226 217 215 215 212 211 215 222 214 204 206 215 210 205 204 209 210 212 217 214 215 212 223 222 213 224 229 234 235 234 241

GFSMA_2pvu_pres_180.txt.gz
Presure
123 149 147 139 136 148 187 157 162 177 185 167 159 201 219 141 83 126 88 133 86 99 106 93 122 101 118 105 105 109 123 128 134 144 176 162 126 122 169 159 159 186 169
132 127 139 133 127 163 138 162 137 99 172 162 133 137 107 76 83 119 83 94 161 107 131 102 152 87 95 136 155 148 135 135 152 190 152 148 169 142 124 146 156 160 183
100 106 95 108 99 103 84 83 220 201 222 95 218 210 149 115 87 226 239 219 161 100 96 233 210 125 94 96 103 159 162 167 121 120 132 135 152 162 157 146 199 157 199
113 91 96 110 100 85 110 110 111 125 151 203 209 159 155 116 88 202 181 259 135 104 216 224 99 91 224 113 173 165 131 109 153 162 159 168 138 145 155 142 143 153 145
161 166 209 164 212 212 105 103 103 114 109 91 217 84 111 175 124 99 203 144 155 174 187 178 193 99 103 234 131 204 211 148 149 159 163 143 178 192 154 152 161 141 151
207 213 197 205 205 202 202 211 213 217 154 118 209 193 192 123 148 145 94 219 116 227 225 230 225 219 217 211 158 213 151 126 156 146 196 140 188 151 225 165 139 158 142
210 209 208 204 196 202 207 216 221 101 165 72 252 254 253 214 210 207 236 302 123 304 90 301 135 138 308 321 315 290 230 215 143 147 152 162 188 166 238 156 189 141 128
201 204 195 195 207 216 219 226 221 167 209 252 242 208 176 172 85 296 281 123 166 284 295 307 183 289 290 289 302 314 305 228 150 155 138 147 149 192 190 167 140 149 115
197 191 198 177 216 210 203 208 199 165 247 205 215 220 240 281 271 265 260 289 296 283 297 284 303 306 329 314 292 291 223 210 205 126 180 126 165 170 185 159 184 193 141
215 226 230 212 178 218 226 224 226 204 193 210 193 280 284 265 249 264 277 267 263 274 270 348 341 351 364 296 329 293 287 295 306 238 216 140 200 187 203 225 204 157 182
234 174 172 175 220 84 197 240 242 213 222 209 230 274 261 252 253 269 253 273 250 277 319 344 345 373 430 431 395 299 286 283 286 324 265 238 231 153 135 163 136 147 171
171 171 229 237 240 242 228 246 216 218 210 267 268 252 250 257 270 255 259 256 271 266 286 350 380 496 459 422 387 391 284 274 234 285 267 248 124 226 232 136 145 137 167
228 234 235 233 238 219 206 211 216 213 267 261 251 240 242 258 261 248 247 250 277 261 264 302 334 359 391 414 385 361 336 281 269 269 269 258 275 239 166 235 227 153 217
231 199 194 204 213 212 213 211 217 265 263 247 239 245 244 258 247 241 258 251 258 270 266 263 296 324 360 346 375 372 357 332 282 284 271 269 265 263 251 235 233 226 162
204 214 215 212 210 213 215 227 273 261 244 239 247 242 244 248 234 251 256 242 247 252 258 244 259 289 325 390 354 359 366 366 322 273 279 259 260 261 266 147 251 143 168
244 246 242 250 238 236 258 269 259 242 237 237 236 241 252 247 260 230 236 243 244 238 246 246 254 253 275 307 327 364 359 344 384 338 255 258 258 256 256 257 266 220 278
308 292 290 280 286 277 258 253 240 239 229 237 227 259 243 235 228 214 235 227 229 234 247 234 234 250 242 255 276 301 335 347 340 359 345 244 260 259 249 249 251 249 248
278 272 288 273 262 251 243 237 232 236 236 228 256 266 247 230 236 222 228 234 234 230 235 231 243 240 239 252 243 254 270 291 317 299 245 236 243 252 247 246 245 247 245
288 266 255 250 241 237 236 231 229 234 244 225 251 231 231 243 230 234 226 232 233 229 229 221 233 229 236 244 237 250 237 242 256 275 289 294 297 262 261 251 164 179 319
252 243 240 237 231 226 227 227 236 246 247 241 252 229 223 231 231 233 227 227 228 225 229 233 234 218 219 227 231 234 232 239 244 243 241 239 248 248 250 259 257 253 191
240 236 228 226 226 225 225 229 238 245 233 256 246 234 242 224 231 231 227 221 221 219 226 224 221 220 223 227 225 222 224 223 233 235 237 235 239 239 231 221 226 225 227
229 228 229 227 229 226 226 226 238 222 243 233 237 248 244 233 209 234 232 228 216 219 223 227 214 216 223 223 216 207 215 219 222 224 226 226 227 228 227 227 228 229 228
230 230 230 230 230 228 229 231 247 222 242 222 251 237 242 234 228 234 201 209 223 221 217 217 211 213 213 213 214 214 213 216 214 216 216 217 218 220 221 221 225 198 198
238 235 233 233 237 238 243 244 235 231 244 246 240 198 154 230 215 219 212 220 213 214 223 215 211 207 215 213 211 208 213 214 210 208 215 214 219 216 215 220 228 222 222
240 243 238 240 255 261 158 151 239 231 258 255 246 221 243 214 226 236 216 206 216 215 222 218 211 205 206 206 203 205 210 212 214 213 209 213 215 210 217 215 215 216 221
227 142 235 253 228 230 242 241 228 235 272 236 231 240 251 226 234 223 218 210 207 218 219 225 211 204 206 208 199 212 212 210 208 208 210 211 205 199 217 211 212 213 224

GFSMA_2pvu_pres_183.txt.gz
Presure
103 112 91 96 100 105 131 123 140 132 143 123 231 224 230 223 223 84 196 86 163 217 86 118 88 138 114 132 91 110 103 109 164 174 139 145 146 127 154 160 129 161 166
93 95 102 95 97 98 97 98 105 101 144 197 223 225 126 196 212 78 147 221 182 211 235 137 176 152 110 152 110 94 96 97 170 157 212 136 135 143 115 128 159 140 144
94 91 90 91 113 98 168 88 103 103 139 111 105 129 212 212 223 83 83 89 97 219 249 236 246 105 118 260 96 170 101 110 98 141 126 114 168 197 155 143 138 157 146
98 91 96 95 163 87 185 214 212 92 125 121 108 130 122 119 114 202 78 119 247 86 107 104 107 238 234 232 120 123 109 111 170 151 213 148 159 149 156 179 168 146 151
158 92 202 172 147 201 210 126 202 191 204 142 85 227 226 220 171 218 204 195 232 216 134 187 160 198 226 226 222 127 109 228 219 209 90 150 152 148 134 151 192 156 180
207 204 187 114 201 210 206 119 200 196 132 213 222 217 158 82 83 257 221 209 225 211 111 109 147 258 304 256 258 301 216 151 174 211 203 235 118 148 152 155 166 173 166
206 196 116 154 210 209 197 135 222 221 211 226 229 204 232 85 269 204 206 218 287 276 270 274 276 302 313 326 137 141 307 316 126 138 219 151 141 136 217 142 218 133 125
203 213 110 207 206 192 206 211 216 230 204 179 233 187 81 205 201 230 216 274 141 266 270 292 273 285 285 280 314 232 351 170 133 186 240 220 204 190 120 139 157 158 162
188 142 212 215 203 206 206 193 224 221 172 208 155 144 119 220 232 232 269 262 261 256 263 269 264 264 264 269 350 355 298 341 296 303 334 222 176 209 124 151 147 132 168
206 205 212 216 212 206 211 226 221 172 233 227 244 207 210 219 277 264 253 255 265 260 263 252 245 252 249 327 523 437 356 294 335 295 315 269 216 136 122 178 144 131 147
211 210 232 219 215 226 230 195 220 232 214 203 210 212 217 262 253 245 252 255 257 263 241 272 270 284 229 356 425 470 372 357 285 307 300 318 215 218 214 208 162 205 183
219 222 227 224 209 193 222 233 228 216 195 207 213 217 224 259 246 244 246 256 249 261 244 245 266 264 276 347 413 425 427 399 359 354 284 306 283 224 205 221 221 192 161
215 221 164 225 241 215 231 249 194 202 211 212 213 233 261 252 247 252 259 243 242 246 257 246 253 257 282 328 375 370 358 376 374 349 291 272 279 250 219 225 214 194 190
176 266 253 232 247 217 219 217 217 217 220 235 239 260 244 250 239 242 251 234 249 221 247 244 244 255 256 286 335 366 353 358 347 332 277 267 281 263 239 222 220 225 238
249 363 347 302 287 268 265 255 265 279 286 269 259 241 236 239 242 247 252 244 225 214 226 250 248 244 224 259 288 351 373 333 328 337 271 313 273 304 252 253 229 220 223
270 331 311 304 296 294 284 279 278 272 257 253 240 238 234 238 259 250 262 228 214 231 236 232 233 243 246 239 257 284 338 359 330 338 318 258 266 267 293 252 246 233 232
316 312 304 290 283 269 278 275 264 254 240 238 229 235 241 249 270 245 250 231 227 232 236 236 235 225 243 234 245 250 275 320 334 353 335 341 253 259 255 264 270 260 244
302 284 280 268 287 275 259 251 240 233 229 229 235 231 237 255 249 241 248 216 226 236 226 228 222 229 231 230 233 248 242 256 285 324 335 367 360 243 293 265 254 251 245
296 288 281 265 258 247 239 231 230 233 235 235 231 244 229 255 245 218 248 227 222 234 224 230 229 228 224 216 227 229 230 243 243 255 283 313 349 253 235 232 238 241 246
281 262 253 243 238 231 229 228 223 229 230 228 247 241 238 264 244 232 232 222 221 229 216 214 228 220 220 227 226 218 222 224 234 226 236 247 261 282 290 267 271 271 264
263 250 242 232 230 229 225 228 226 227 230 231 239 220 244 278 239 237 231 231 230 229 215 223 228 219 215 216 221 219 223 225 224 213 214 230 230 228 225 226 225 232 228
249 240 235 236 230 230 230 229 230 228 230 232 247 224 242 225 240 238 224 237 229 231 223 230 223 223 210 213 211 207 213 221 219 219 218 225 227 224 221 204 205 206 233
245 231 240 239 237 240 239 238 237 237 238 246 238 233 238 243 254 244 146 227 223 229 206 154 212 217 217 207 205 214 216 212 214 215 214 213 215 216 215 218 217 214 200
229 229 230 234 241 245 244 242 243 248 229 134 176 240 236 251 238 243 229 240 224 223 218 207 212 221 220 213 212 212 215 212 200 205 213 210 212 211 210 215 215 210 210
206 213 222 224 226 164 156 209 225 236 240 247 248 272 227 254 237 243 236 247 229 208 224 218 209 209 222 213 212 204 207 212 208 205 207 211 203 212 209 211 213 213 211
193 196 133 210 214 218 218 221 222 223 224 234 252 270 279 283 232 240 248 233 229 233 220 208 210 209 217 223 220 220 202 206 209 217 218 215 204 210 206 202 204 207 205

GFSMA_2pvu_pres_189.txt.gz
Presure
91 86 92 91 93 96 94 99 95 96 121 97 115 142 105 95 175 119 182 217 88 103 115 115 110 134 132 218 230 127 90 99 149 230 233 118 88 119 97 224 154 178 172
90 92 83 92 95 95 89 88 96 91 96 92 97 106 115 199 131 93 189 212 217 204 218 228 96 96 164 93 120 139 99 110 238 222 100 138 102 118 113 94 129 164 152
90 82 83 97 85 97 94 92 91 135 209 86 105 97 165 220 210 217 159 215 214 219 224 229 99 176 239 84 92 121 269 104 96 114 216 99 98 151 97 97 99 111 158
91 80 97 98 96 97 96 112 123 142 179 170 216 212 216 212 213 215 220 137 219 117 210 231 170 91 90 85 115 176 145 101 98 91 129 241 249 244 219 138 180 127 146
86 92 99 85 92 98 101 96 164 191 209 206 210 213 217 94 152 211 218 90 208 232 230 228 169 181 153 226 221 222 239 207 272 165 152 187 240 163 117 187 237 125 143
99 98 83 101 154 123 112 204 207 196 216 207 212 210 203 211 213 217 224 224 234 125 238 201 181 230 215 223 244 285 281 286 285 257 282 238 200 152 242 237 206 238 173
95 98 104 102 100 196 197 197 205 198 208 210 202 191 228 208 221 221 228 243 86 88 226 160 231 205 84 236 278 277 270 271 266 266 121 287 297 307 98 224 239 214 112
152 132 189 184 194 193 192 206 211 227 246 215 217 218 220 225 224 216 214 224 231 227 181 81 214 217 88 270 88 260 254 255 254 264 279 155 285 308 317 209 209 208 126
189 193 207 204 211 193 177 267 170 250 217 222 225 220 232 221 221 223 228 237 232 236 242 258 205 219 116 259 253 253 242 251 270 269 253 418 397 378 300 274 210 209 204
210 229 71 275 289 243 77 232 219 230 224 224 223 225 226 232 242 243 258 258 256 255 231 201 216 264 259 249 249 233 237 243 259 395 383 405 257 357 296 323 223 212 203
188 242 296 282 240 232 227 228 231 237 238 240 279 288 289 279 296 295 267 254 229 216 235 223 264 252 247 243 233 249 233 242 395 401 407 356 426 250 287 312 243 225 231
244 291 260 228 210 235 271 270 276 294 288 283 274 269 265 266 272 270 253 240 256 235 257 256 271 260 241 229 243 231 252 310 384 366 378 375 333 336 258 308 237 227 213
279 248 215 207 276 240 291 281 272 264 262 239 288 306 295 271 259 264 265 252 255 252 251 241 247 248 233 236 238 242 256 314 369 310 319 289 303 328 241 287 232 219 227
225 224 201 216 274 264 290 270 265 333 321 308 292 282 278 270 257 252 252 256 244 243 240 244 250 238 227 248 223 238 240 293 277 253 293 279 277 276 252 286 228 218 217
231 204 263 263 264 258 275 321 331 319 300 279 284 282 282 259 256 259 244 239 233 235 229 251 252 226 221 228 238 230 234 263 278 256 257 271 268 271 266 230 247 227 219
241 251 252 274 275 279 318 317 302 282 272 264 266 266 257 254 246 236 233 233 229 234 233 247 243 226 221 224 232 228 234 238 269 275 263 257 249 267 261 244 281 236 221
241 242 296 312 286 271 289 282 288 278 267 262 257 251 241 235 235 230 229 227 228 231 251 243 234 223 221 216 230 230 231 230 235 252 312 267 248 245 276 277 251 293 220
238 232 400 321 280 288 273 263 257 262 255 250 242 239 229 228 227 227 227 235 242 228 248 244 241 227 225 214 229 217 223 217 230 230 251 256 293 343 264 261 261 265 233
228 227 212 210 275 285 265 260 251 243 239 240 239 231 227 227 226 227 239 240 233 230 249 235 251 226 227 218 219 221 217 227 223 225 225 244 250 272 309 364 327 253 274
222 223 210 213 212 212 231 244 238 231 236 234 232 233 229 229 228 230 228 242 224 239 253 255 236 236 226 219 218 217 222 223 220 224 229 225 241 247 263 300 346 369 247
216 214 212 206 200 201 203 204 205 236 241 241 240 238 237 239 239 239 238 245 235 237 242 236 236 243 234 228 219 221 219 221 221 217 216 220 226 237 245 260 280 237 305
210 206 205 205 205 207 205 203 203 202 200 229 248 242 242 247 247 255 257 254 232 241 242 248 242 237 247 230 122 226 223 224 222 146 212 222 220 219 229 237 243 240 244
214 201 203 197 205 197 203 203 194 197 202 202 203 199 219 230 149 218 250 246 244 272 260 238 234 254 244 245 234 231 220 219 215 218 210 216 220 222 221 215 228 237 246
206 206 200 190 207 205 193 197 204 217 220 205 196 204 203 201 206 221 219 227 238 249 266 258 247 255 256 217 232 226 235 212 206 212 224 214 209 222 215 219 208 211 212
199 204 209 180 203 214 190 218 213 213 224 211 202 226 216 222 210 195 197 207 225 223 227 233 236 242 240 243 240 246 223 211 231 214 213 217 221 213 215 218 209 207 213
212 205 202 208 204 203 187 220 205 194 220 207 233 223 237 232 228 225 215 213 196 195 194 214 221 228 232 249 249 240 241 226 226 219 214 205 208 213 219 207 211 212 215

GFSMA_2pvu_pres_192.txt.gz
Presure
85 90 90 89 90 85 97 89 98 89 97 100 87 100 108 130 138 99 145 212 183 166 186 181 93 186 214 222 213 196 97 167 126 99 93 97 99 103 210 146 131 97 96
89 90 89 97 96 91 96 92 101 96 99 89 100 201 102 176 190 165 212 208 221 195 218 219 226 104 220 130 240 207 161 91 83 88 113 217 181 219 202 100 96 97 83
87 90 82 88 83 97 85 99 100 98 97 92 197 108 87 220 207 217 213 212 206 214 215 218 222 226 220 115 92 96 83 84 214 87 134 91 208 205 111 103 86 108 102
93 86 86 79 96 98 87 87 100 98 99 101 122 196 196 207 200 208 153 204 203 225 215 213 216 210 220 231 242 185 209 217 180 95 211 231 230 98 90 128 135 211 243
79 94 83 96 95 96 94 102 97 97 141 194 76 215 195 222 223 213 216 219 135 159 141 227 224 186 219 85 211 233 234 180 95 211 239 299 94 237 240 152 178 197 140
84 96 100 99 99 100 102 143 204 129 149 220 212 205 206 213 217 245 245 206 214 125 220 137 215 217 226 179 235 227 179 205 128 216 133 280 278 285 247 105 119 201 120
101 101 97 103 105 221 222 235 246 249 276 307 288 250 278 254 271 253 218 221 221 218 231 217 223 226 235 80 232 87 244 89 138 275 270 266 265 268 84 289 295 101 207
202 203 202 202 208 211 229 248 284 304 290 251 241 233 223 221 225 225 225 228 222 218 222 223 232 234 243 253 253 224 214 273 231 263 253 258 263 265 286 299 300 312 252
193 193 187 189 206 171 233 309 295 259 150 221 245 251 248 249 243 164 233 229 227 225 230 248 252 256 256 267 232 232 269 260 254 129 256 263 348 423 449 447 373 281 275
188 166 166 211 166 247 309 284 244 207 268 277 269 273 288 278 266 272 264 263 281 276 290 267 255 247 216 218 226 262 260 249 240 246 254 412 365 394 398 371 432 377 348
197 191 200 192 251 297 276 232 198 298 297 286 284 284 283 281 279 273 271 269 265 264 276 276 251 241 242 243 262 254 244 235 234 246 318 306 323 346 438 357 460 451 354
188 160 241 257 288 261 213 217 273 263 273 266 252 286 303 296 291 306 317 296 236 248 265 262 245 246 242 251 245 244 232 230 236 245 308 253 303 314 325 335 335 323 313
224 239 269 256 264 209 234 257 252 302 296 352 340 326 314 307 298 289 284 271 257 257 253 251 245 244 244 240 251 238 231 235 231 257 273 262 286 316 299 300 257 255 309
225 272 286 261 208 235 254 274 307 290 307 328 303 291 284 281 280 278 262 253 254 259 248 245 246 239 235 251 241 229 228 219 224 235 285 253 263 268 280 262 259 227 251
266 306 259 201 248 254 233 321 286 310 310 290 280 276 268 268 266 260 256 256 249 242 237 238 236 232 239 240 233 226 230 225 228 229 265 265 241 279 268 248 259 219 245
302 254 199 233 219 243 221 307 289 283 286 285 278 272 260 254 249 245 241 238 234 235 236 231 238 230 256 244 229 226 227 226 226 220 239 268 252 228 270 252 257 235 277
237 205 241 237 248 228 212 224 283 277 269 265 262 260 254 247 242 239 238 237 231 230 229 228 241 229 256 246 228 225 228 225 212 219 221 235 255 276 250 266 264 210 292
263 248 223 234 238 219 217 206 215 216 231 244 247 241 245 240 239 235 229 229 229 236 245 260 240 239 251 253 230 228 224 225 217 226 222 227 237 246 267 304 259 251 217
255 238 251 242 222 219 216 210 207 206 214 213 239 242 235 234 230 234 228 227 227 228 240 235 230 251 262 242 224 235 227 224 219 219 226 228 230 226 243 263 283 322 253
289 254 240 226 223 217 209 210 203 208 213 205 204 208 222 247 245 244 242 241 236 235 232 248 230 244 253 239 247 236 231 224 222 218 220 229 218 221 229 241 256 279 318
252 240 226 219 222 214 206 203 205 207 206 209 209 204 202 201 208 229 237 235 240 248 256 247 245 233 246 217 238 243 232 232 227 227 208 221 224 223 213 231 237 251 270
231 227 222 223 221 218 203 207 195 220 221 202 201 233 225 203 203 198 201 208 225 237 248 254 257 263 244 226 234 247 248 234 233 124 227 230 220 222 223 217 225 237 244
208 209 205 205 197 190 206 208 202 190 212 205 208 193 217 231 236 212 221 211 202 156 217 222 232 241 269 224 260 243 259 258 236 234 231 224 224 220 211 223 217 223 233
190 192 202 197 191 186 207 206 211 211 181 183 203 213 226 204 226 234 231 196 226 220 200 199 207 217 224 236 244 255 226 261 235 248 233 231 216 213 221 220 217 215 216
208 203 210 208 208 188 208 213 206 204 213 217 202 216 218 222 225 208 193 223 229 232 236 231 216 198 202 203 210 220 228 230 257 238 250 242 226 223 213 214 227 218 225
192 187 201 201 195 217 211 214 220 205 216 214 216 208 224 216 218 218 210 212 215 211 217 224 225 229 226 228 226 193 194 201 227 232 245 246 236 228 231 221 215 216 207